Regional Weather Roundup
Issued by NWS

Home | Current Version | Previous Version | Text Only | Print | Product List | Glossary On
Versions: 1 2 3 4 5 6 7 8 9 10 11 12 13 14 15 16 17 18 19 20 21 22 23 24 25 26 27 28 29 30 31 32 33 34 35 36 37 38 39 40 41 42 43 44 45 46 47 48 49 50
000
ASUS43 KIND 012109
RWRIN

WEATHER ROUNDUP FOR INDIANA
NATIONAL WEATHER SERVICE INDIANAPOLIS IN
500 PM EDT SAT OCT 01 2016

NOTE: "FAIR" INDICATES FEW OR NO CLOUDS BELOW 12,000 FEET WITH NO
SIGNIFICANT WEATHER AND/OR OBSTRUCTIONS TO VISIBILITY.

* - STATION DOES NOT REPORT WEATHER SUCH AS PRECIPITATION OR FOG.

+ - STATION NOT QUALITY CONTROLLED BY THE NATIONAL WEATHER SERVICE.
    USE DATA WITH CAUTION...ESPECIALLY DEWPOINT AND RELATIVE
    HUMIDITY OBSERVATIONS.

INZ001>003-010>013-019-020-012200-
NORTHWEST INDIANA

CITY           SKY/WX    TMP DP  RH WIND       PRES   REMARKS
GARY /AIRPORT/ PTSUNNY   66  59  77 N9        29.97S
KNOX *+        CLOUDY    59  43  55 S5        29.97S
LA PORTE +     PTSUNNY   62  62 100 CALM      29.98S
MICHIGAN CITY+ CLOUDY    61  61 100 CALM      29.98R
MONTICELLO +   CLOUDY    60  55  82 SW6       29.97S
RENSSELAER +   CLOUDY    61  61 100 CALM      29.97S
VALPARAISO     PTSUNNY   66  57  72 W5        29.97S THUNDER

$$

LMZ046-743>745-012200-
SOUTHERN LAKE MICHIGAN

STATION/POSITION TIME  TEMP    WIND        PRES    WAVE
                       AIR SEA DIR/SP/G            HT
                 (UTC) (F)     (DEG/KT/KT) (MB)    (FT)
BURNS HARBOR     2040   63      20/  7/  8 1015.2R
MICHIGAN CITY    2040   64     360/  2/  2   N/A
5NW MICH CITY    2100   63 65   70/  2/  4   N/A     2

$$

INZ004-005-014>016-021>024-012200-
NORTH CENTRAL INDIANA

CITY           SKY/WX    TMP DP  RH WIND       PRES   REMARKS
ELKHART        CLOUDY    61  50  67 SE12G17   29.99R
GOSHEN         LGT RAIN  57  54  89 CALM      30.00R FOG
LOGANSPORT +   CLOUDY    63  55  77 S9        29.98F
PERU/GRISSOM   DRIZZLE   61  57  86 SW5       29.97S
ROCHESTER +    RAIN      63  59  88 S5        29.98S
SOUTH BEND     PTSUNNY   64  56  75 W3        29.97S
WARSAW +       PTSUNNY   61  52  72 E8        29.99S

$$

INZ006>009-017-018-025>027-012200-
NORTHEAST INDIANA

CITY           SKY/WX    TMP DP  RH WIND       PRES   REMARKS
ANGOLA *+        N/A     61  54  77 CALM      29.99F
AUBURN +       CLOUDY    59  54  82 SW7       30.01R
FORT WAYNE     LGT RAIN  56  53  90 E5        30.01S FOG
HUNTINGTON +   CLOUDY    61  53  74 CALM      30.00R
KENDALLVILLE + CLOUDY    61  53  73 SW5       29.99F

$$

INZ028-029-035-036-043>045-051>053-012200-
WEST CENTRAL INDIANA

CITY           SKY/WX    TMP DP  RH WIND       PRES   REMARKS
CRAWFORDSVL +  CLOUDY    61  57  87 W5        29.99S
GREENCASTLE +  CLOUDY    61  59  94 S3        30.00S
LAFAYETTE      CLOUDY    61  58  90 W3        29.98S
TERRE HAUTE    CLOUDY    65  58  78 E5        29.99S

$$

INZ030>032-037>040-046>048-054>057-064-065-012200-
CENTRAL INDIANA

CITY           SKY/WX    TMP DP  RH WIND       PRES   REMARKS
COLUMBUS       CLOUDY    63  59  88 SW8       30.01F
FISHERS *+     CLOUDY    63  57  82 S3        29.99S
FRANKFORT +    DRIZZLE   64  58  81 W6        30.01S
GREENWOOD *+   CLOUDY    64  57  77 S8        30.00S
INDIANAPOLIS   LGT RAIN  63  57  81 SW10      29.99R
-EAGLE CREEK   CLOUDY    63  56  78 S6        29.98S
KOKOMO *+      CLOUDY    61  55  82 S6        30.00S
MARION +       CLOUDY    62  52  71 SW5       30.00S
MT COMFORT *+  CLOUDY    61  55  82 CALM      30.00S
SHELBYVILLE    MOSUNNY   65  54  67 S14       30.00R
ZIONSVILLE +   CLOUDY    63  55  74 S6        29.99S

$$

INZ033-034-041-042-049-050-058-059-012200-
EAST CENTRAL INDIANA

CITY           SKY/WX    TMP DP  RH WIND       PRES   REMARKS
MUNCIE         CLOUDY    63  54  72 CALM      30.00S

$$

INZ060-061-067>069-081>083-085>088-012200-
SOUTHWEST INDIANA

CITY           SKY/WX    TMP DP  RH WIND       PRES   REMARKS
EVANSVILLE     CLOUDY    67  61  81 SW7       30.00R
HUNTINGBURG *+   N/A     70  57  64 S3        29.99F
WASHINGTON +   MOSUNNY  N/A N/A N/A CALM      29.98S

$$

INZ062-063-066-070>080-084-089>092-012200-
SOUTH CENTRAL AND SOUTHEAST INDIANA

CITY           SKY/WX    TMP DP  RH WIND       PRES   REMARKS
BLOOMINGTON    CLOUDY    63  56  78 E3        30.00F
MADISON *+     CLOUDY    68  52  56 CALM      30.02F
NORTH VERNON + CLOUDY    66  61  82 CALM      30.01F
SEYMOUR +      PTSUNNY   70  55  60 CALM      30.00F

$$





USA.gov is the U.S. government's official web portal to all federal, state and local government web resources and services.